This demonstration page uses our WeatherBlox Daily Observations layout. Learn more.

Left ArrowRight Arrow

Hourly Observations for March 10, 2021

Temp ( °F °C ) Dew Point ( °F °C ) Humidity (%) Winds ( mph kmh ) Pressure ( in mb ) Visibility ( mi km ) Precip ( " mm )
12:53 am 00:53 Clear 42 5.6 33 0.6 71 71 Calm 30.43 1031 9 14 0.00 0.00
1:53 am 01:53 Clear 39 3.9 33 0.6 79 79 Calm 30.42 1030 9 14 0.00 0.00
2:53 am 02:53 Clear 37 2.8 32 0 82 82 Calm 30.40 1030 9 14 0.00 0.00
3:53 am 03:53 Clear 37 2.8 33 0.6 86 86 Calm 30.40 1029 9 14 0.00 0.00
4:53 am 04:53 Clear 37 2.8 33 0.6 86 86 Calm 30.40 1030 9 14 0.00 0.00
5:53 am 05:53 Clear 36 2.2 33 0.6 89 89 Calm 30.42 1030 9 14 0.00 0.00
6:53 am 06:53 Clear 37 2.8 33 0.6 86 86 Calm 30.43 1031 8 13 0.00 0.00
7:53 am 07:53 Sunny 38 3.3 34 1.1 86 86 Calm 30.46 1031 8 13 0.00 0.00
8:53 am 08:53 Sunny 48 8.9 39 3.9 71 71 Calm 30.47 1032 8 13 0.00 0.00
9:53 am 09:53 Sunny 58 14.4 39 3.9 50 50 Calm 30.47 1032 10 16 0.00 0.00
10:53 am 10:53 Sunny 64 17.8 40 4.4 41 41 Calm 30.46 1032 10 16 0.00 0.00
11:53 am 11:53 Sunny 68 20 39 3.9 35 35 VRB 7 11 30.45 1031 10 16 0.00 0.00
12:53 pm 12:53 Sunny 70 21.1 37 2.8 30 30 VRB 3 6 30.42 1030 10 16 0.00 0.00
1:53 pm 13:53 Sunny 71 21.7 35 1.7 27 27 ESE 6 9 30.40 1029 10 16 0.00 0.00
2:53 pm 14:53 Sunny 73 22.8 34 1.1 24 24 VRB 6 9 30.37 1029 10 16 0.00 0.00
3:53 pm 15:53 Sunny 73 22.8 34 1.1 24 24 S 13 20 30.35 1028 10 16 0.00 0.00
4:53 pm 16:53 Sunny 72 22.2 34 1.1 25 25 S 6 9 30.34 1027 10 16 0.00 0.00
5:53 pm 17:53 Sunny 71 21.7 37 2.8 29 29 S 8 13 30.35 1028 10 16 0.00 0.00
6:53 pm 18:53 Clear 69 20.6 36 2.2 30 30 SSE 8 13 30.34 1027 10 16 0.00 0.00
7:53 pm 19:53 Clear 66 18.9 35 1.7 32 32 SE 5 7 30.35 1028 10 16 0.00 0.00
8:53 pm 20:53 Clear 64 17.8 34 1.1 33 33 SSE 5 7 30.35 1028 10 16 0.00 0.00
9:53 pm 21:53 Clear 62 16.7 34 1.1 35 35 SSE 7 11 30.36 1028 10 16 0.00 0.00
10:53 pm 22:53 Clear 60 15.6 36 2.2 41 41 SSE 6 9 30.36 1028 10 16 0.00 0.00
11:53 pm 23:53 Clear 50 10 38 3.3 63 63 Calm 30.36 1028 10 16 0.00 0.00

Powered by AerisWeather